This demonstration page uses our WeatherBlox Daily Observations layout. Learn more.

Hourly Observations for November 1, 2019

Temp ( °F °C ) Dew Point ( °F °C ) Humidity (%) Winds ( mph kmh ) Pressure ( in mb ) Visibility ( mi km ) Precip ( " mm )
12:15 am 00:15 Clear 32 0.2 22 -5.7 65 65 WSW 5 7 30.17 1022 10 16.0934 0 0
12:35 am 00:35 Clear 32 0 22 -5.4 67 67 W 6 9 30.18 1022 10 16.0934 0 0
12:55 am 00:55 Clear 35 1.5 24 -4.7 64 64 WSW 7 11 30.16 1021 10 16.0934 0 0
1:15 am 01:15 Clear 35 1.7 24 -4.4 64 64 W 8 13 30.16 1021 10 16.0934 0 0
1:35 am 01:35 Clear 34 1.3 24 -4.5 66 66 W 8 13 30.16 1021 10 16.0934 0 0
1:55 am 01:55 Clear 33 0.7 24 -4.5 69 69 W 8 13 30.16 1021 10 16.0934 0 0
2:15 am 02:15 Clear 33 0.4 24 -4.2 72 72 W 8 13 30.16 1021 10 16.0934 0 0
2:35 am 02:35 Clear 33 0.8 25 -4 71 71 W 9 15 30.16 1021 10 16.0934 0 0
2:55 am 02:55 Clear 33 0.6 25 -3.8 73 73 W 9 15 30.17 1022 10 16.0934 0 0
3:15 am 03:15 Clear 33 0.8 25 -3.7 72 72 WNW 8 13 30.17 1022 10 16.0934 0 0
3:35 am 03:35 Clear 33 0.3 26 -3.5 76 76 NW 7 11 30.17 1022 10 16.0934 0 0
3:55 am 03:55 Clear 33 0.5 26 -3.5 75 75 WNW 7 11 30.18 1022 10 16.0934 0 0
4:15 am 04:15 Clear 34 1 26 -3.2 74 74 WNW 9 15 30.19 1022 10 16.0934 0 0
4:35 am 04:35 Clear 34 1.1 26 -3.1 74 74 WNW 7 11 30.18 1022 10 16.0934 0 0
4:55 am 04:55 Clear 34 1.2 26 -3.4 72 72 NW 10 17 30.18 1022 10 16.0934 0 0
5:15 am 05:15 Clear 35 1.5 26 -3.3 71 71 NW 12 19 30.19 1022 10 16.0934 0 0
5:35 am 05:35 Clear 35 1.5 26 -3.5 70 70 NNW 7 11 30.2 1023 10 16.0934 0 0
5:55 am 05:55 Partly Cloudy 34 1.3 26 -3.5 71 71 NNW 7 11 30.21 1023 10 16.0934 0 0
6:15 am 06:15 Mostly Cloudy 34 1.3 26 -3.2 72 72 NNW 7 11 30.22 1023 10 16.0934 0 0
6:35 am 06:35 Cloudy 35 1.5 27 -3 72 72 NNW 7 11 30.22 1023 10 16.0934 0 0
6:55 am 06:55 Cloudy 36 2.4 27 -2.8 69 69 NNW 8 13 30.21 1023 10 16.0934 0 0
7:15 am 07:15 Cloudy 37 2.8 28 -2.3 69 69 NNW 6 9 30.22 1023 10 16.0934 0 0
7:35 am 07:35 Cloudy 37 2.5 28 -2.1 72 72 NW 3 6 30.22 1023 10 16.0934 0 0
7:55 am 07:55 Cloudy 37 2.6 28 -2.2 71 71 NW 3 6 30.22 1023 10 16.0934 0 0
8:15 am 08:15 Cloudy 37 2.5 28 -2.1 72 72 NW 6 9 30.23 1024 10 16.0934 0 0
8:35 am 08:35 Cloudy 36 2.2 28 -2 74 74 NNW 6 9 30.24 1024 10 16.0934 0 0
8:55 am 08:55 Cloudy 37 2.8 29 -1.9 72 72 NNW 8 13 30.26 1025 10 16.0934 0 0
9:15 am 09:15 Cloudy 37 3 30 -1.2 74 74 NNW 8 13 30.27 1025 10 16.0934 0 0
9:35 am 09:35 Mostly Cloudy 38 3.2 31 -0.5 77 77 NNW 10 17 30.28 1025 10 16.0934 0 0
9:55 am 09:55 Cloudy 39 3.8 32 0 77 77 NNW 6 9 30.28 1025 10 16.0934 0 0
10:15 am 10:15 Cloudy 40 4.3 33 0.5 77 77 NNW 6 9 30.28 1026 10 16.0934 0 0
10:35 am 10:35 Mostly Cloudy 41 4.8 33 0.7 75 75 NW 7 11 30.29 1026 10 16.0934 0 0
10:55 am 10:55 Mostly Cloudy 40 4.7 33 0.8 76 76 NNW 10 17 30.3 1026 10 16.0934 0 0
11:15 am 11:15 Cloudy 41 5 34 0.9 75 75 NNW 12 19 30.31 1026 10 16.0934 0 0
11:35 am 11:35 Mostly Cloudy 42 5.8 34 0.9 71 71 NNW 9 15 30.3 1026 10 16.0934 0 0
11:55 am 11:55 Mostly Cloudy 44 6.5 33 0.5 66 66 NNW 15 24 30.3 1026 10 16.0934 0 0
12:15 pm 12:15 Mostly Cloudy 45 7 33 0.5 64 64 NNW 15 24 30.29 1026 10 16.0934 0 0
12:35 pm 12:35 Sunny 46 7.7 33 0.7 62 62 NNW 9 15 30.28 1026 10 16.0934 0 0
12:55 pm 12:55 Partly Cloudy 47 8.4 33 0.6 58 58 NNW 14 22 30.27 1025 10 16.0934 0 0
1:15 pm 13:15 Partly Cloudy 46 8 32 -0.1 57 57 NNW 12 19 30.27 1025 10 16.0934 0 0
1:35 pm 13:35 Partly Cloudy 48 9 32 0 54 54 NW 14 22 30.26 1025 10 16.0934 0 0
1:55 pm 13:55 Mostly Cloudy 48 9 32 -0.2 53 53 NNW 16 26 30.25 1024 10 16.0934 0 0
2:15 pm 14:15 Cloudy 47 8.3 32 -0.2 55 55 NNW 14 22 30.26 1025 10 16.0934 0 0
2:35 pm 14:35 Mostly Cloudy 46 7.5 32 0 59 59 NNW 12 19 30.27 1025 10 16.0934 0 0
2:55 pm 14:55 Mostly Cloudy 47 8.6 32 0 55 55 NW 14 22 30.26 1025 10 16.0934 0 0
3:15 pm 15:15 Mostly Cloudy 48 9 30 -1 50 50 NNW 16 26 30.25 1024 10 16.0934 0 0
3:35 pm 15:35 Mostly Cloudy 49 9.4 31 -0.5 50 50 NNW 16 26 30.26 1025 10 16.0934 0 0
3:55 pm 15:55 Mostly Cloudy 48 9.1 30 -1 50 50 NNW 13 20 30.26 1025 10 16.0934 0 0
4:15 pm 16:15 Mostly Cloudy 49 9.3 29 -1.5 47 47 NNW 12 19 30.26 1025 10 16.0934 0 0
4:35 pm 16:35 Mostly Cloudy 49 9.3 28 -2 45 45 NNW 14 22 30.27 1025 10 16.0934 0 0
4:55 pm 16:55 Mostly Cloudy 48 8.9 28 -2.3 46 46 NW 12 19 30.27 1025 10 16.0934 0 0
5:15 pm 17:15 Mostly Cloudy 49 9.4 28 -2.3 44 44 NW 6 9 30.27 1025 10 16.0934 0 0
5:30 pm 17:30 Mostly Cloudy 49 9.2 27 -3 43 43 WNW 10 17 30.27 1025 10 16.0934 0 0
5:55 pm 17:55 Cloudy 47 8.3 27 -2.6 47 47 NW 15 24 30.3 1026 10 16.0934 0 0
6:15 pm 18:15 Cloudy 44 6.8 30 -1.2 57 57 NW 16 26 30.32 1027 10 16.0934 0 0
6:35 pm 18:35 Cloudy 43 6.2 30 -1 60 60 NNW 9 15 30.34 1027 10 16.0934 0 0
6:55 pm 18:55 Cloudy 42 5.7 30 -1.1 62 62 NW 8 13 30.35 1028 10 16.0934 0 0
7:15 pm 19:15 Mostly Cloudy 40 4.4 29 -1.5 66 66 NW 5 7 30.36 1028 10 16.0934 0 0
7:35 pm 19:35 Clear 38 3.1 29 -1.8 71 71 WNW 5 7 30.39 1029 10 16.0934 0 0
7:55 pm 19:55 Clear 35 1.5 27 -2.6 74 74 NW 6 9 30.41 1030 10 16.0934 0 0
8:15 pm 20:15 Clear 34 0.9 27 -2.6 78 78 NW 7 11 30.43 1030 10 16.0934 0 0
8:35 pm 20:35 Clear 35 1.5 28 -2.1 77 77 NW 7 11 30.42 1030 10 16.0934 0 0
8:55 pm 20:55 Clear 33 0.3 28 -2.5 82 82 NW 7 11 30.44 1031 10 16.0934 0 0
9:15 pm 21:15 Clear 33 0.6 27 -2.8 78 78 NW 7 11 30.45 1031 10 16.0934 0 0
9:35 pm 21:35 Clear 33 0.5 27 -2.9 78 78 NW 7 11 30.46 1032 10 16.0934 0 0
9:55 pm 21:55 Clear 32 0 26 -3.2 79 79 NW 7 11 30.47 1032 10 16.0934 0 0
10:15 pm 22:15 Clear 31 -0.5 25 -3.7 79 79 NW 7 11 30.47 1032 10 16.0934 0 0
10:35 pm 22:35 Clear 31 -0.8 25 -4 79 79 NW 7 11 30.48 1032 10 16.0934 0 0
10:55 pm 22:55 Clear 30 -1 25 -4 80 80 WNW 6 9 30.49 1032 10 16.0934 0 0
11:15 pm 23:15 Clear 29 -1.5 24 -4.2 82 82 WNW 5 7 30.49 1033 10 16.0934 0 0
11:35 pm 23:35 Partly Cloudy 28 -2.5 23 -5.1 83 83 W 5 7 30.51 1033 10 16.0934 0 0
11:55 pm 23:55 Mostly Cloudy 29 -1.5 25 -4.1 83 83 W 7 11 30.5 1033 10 16.0934 0 0

Powered by AerisWeather